| time (UTC) | temp F | wind direction | speed MPH | gust MPH | rain 1hr in | rain 24hr in | rain mn in | humidity % | barometer mb |
| 20260505140548 | 65 | 190 | 7.0 | 14.0 | 0.00 | 0.00 | 0.00 | 49 | 1016.6 |
| 20260505124554 | 62 | 0 | 0.0 | 0.0 | 0.00 | 0.00 | 0.00 | 60 | 1016.4 |
| 20260505124047 | 62 | 0 | 0.0 | 0.0 | 0.00 | 0.00 | 0.00 | 59 | 1016.3 |
| 20260505123548 | 61 | 0 | 0.0 | 0.0 | 0.00 | 0.00 | 0.00 | 61 | 1016.2 |
| 20260505123108 | 60 | 0 | 0.0 | 0.0 | 0.00 | 0.00 | 0.00 | 62 | 1016.2 |
| 20260505122548 | 59 | 0 | 0.0 | 1.0 | 0.00 | 0.00 | 0.00 | 63 | 1016.2 |
| 20260505122047 | 59 | 0 | 0.0 | 2.0 | 0.00 | 0.00 | 0.00 | 63 | 1016.1 |
| 20260505121556 | 59 | 190 | 0.0 | 2.0 | 0.00 | 0.00 | 0.00 | 63 | 1016.2 |
| 20260505121049 | 60 | 190 | 0.0 | 0.0 | 0.00 | 0.00 | 0.00 | 62 | 1016.1 |
| 20260505120550 | 59 | 0 | 0.0 | 0.0 | 0.00 | 0.00 | 0.00 | 63 | 1016.2 |
| 20260505120050 | 58 | 0 | 0.0 | 0.0 | 0.00 | 0.00 | 0.00 | 64 | 1016.1 |
| 20260505115548 | 58 | 0 | 0.0 | 0.0 | 0.00 | 0.00 | 0.00 | 69 | 1016.1 |
| 20260505115048 | 57 | 0 | 0.0 | 0.0 | 0.00 | 0.00 | 0.00 | 69 | 1016.2 |
| 20260505114611 | 56 | 0 | 0.0 | 0.0 | 0.00 | 0.00 | 0.00 | 67 | 1016.3 |
| 20260505114048 | 55 | 0 | 0.0 | 0.0 | 0.00 | 0.00 | 0.00 | 68 | 1016.3 |
| 20260505113551 | 54 | 0 | 0.0 | 0.0 | 0.00 | 0.00 | 0.00 | 70 | 1016.1 |
| 20260505113056 | 53 | 0 | 0.0 | 0.0 | 0.00 | 0.00 | 0.00 | 70 | 1016.1 |
| 20260505112548 | 52 | 0 | 0.0 | 0.0 | 0.00 | 0.00 | 0.00 | 72 | 1016.1 |
| 20260505112048 | 52 | 0 | 0.0 | 0.0 | 0.00 | 0.00 | 0.00 | 71 | 1016.0 |
| 20260505111605 | 51 | 0 | 0.0 | 0.0 | 0.00 | 0.00 | 0.00 | 72 | 1016.0 |
| 20260505111051 | 52 | 0 | 0.0 | 0.0 | 0.00 | 0.00 | 0.00 | 71 | 1016.0 |
| 20260505110549 | 52 | 0 | 0.0 | 0.0 | 0.00 | 0.00 | 0.00 | 71 | 1016.0 |
| 20260505102048 | 51 | 0 | 0.0 | 1.0 | 0.00 | 0.00 | 0.00 | 73 | 1015.5 |
| 20260505101554 | 51 | 0 | 0.0 | 3.0 | 0.00 | 0.00 | 0.00 | 72 | 1015.5 |
| 20260505101048 | 52 | 0 | 0.0 | 3.0 | 0.00 | 0.00 | 0.00 | 69 | 1015.6 |
| 20260505100549 | 52 | 190 | 1.0 | 3.0 | 0.00 | 0.00 | 0.00 | 69 | 1015.6 |
| 20260505100055 | 53 | 0 | 0.0 | 3.0 | 0.00 | 0.00 | 0.00 | 68 | 1015.5 |
| 20260505095548 | 54 | 190 | 0.0 | 3.0 | 0.00 | 0.00 | 0.00 | 66 | 1015.5 |
| 20260505095049 | 54 | 190 | 1.0 | 3.0 | 0.00 | 0.00 | 0.00 | 66 | 1015.5 |
| 20260505094551 | 54 | 190 | 2.0 | 4.0 | 0.00 | 0.00 | 0.00 | 66 | 1015.4 |
| 20260505094049 | 54 | 190 | 3.0 | 6.0 | 0.00 | 0.00 | 0.00 | 66 | 1015.3 |
| 20260505093548 | 54 | 190 | 4.0 | 8.0 | 0.00 | 0.00 | 0.00 | 66 | 1015.3 |
| 20260505093053 | 54 | 190 | 4.0 | 8.0 | 0.00 | 0.00 | 0.00 | 65 | 1015.3 |
| 20260505092547 | 55 | 190 | 5.0 | 8.0 | 0.00 | 0.00 | 0.00 | 65 | 1015.3 |
| 20260505092049 | 55 | 190 | 5.0 | 9.0 | 0.00 | 0.00 | 0.00 | 64 | 1015.2 |
| 20260505091551 | 55 | 190 | 6.0 | 9.0 | 0.00 | 0.00 | 0.00 | 63 | 1015.3 |
| 20260505091050 | 55 | 190 | 4.0 | 7.0 | 0.00 | 0.00 | 0.00 | 63 | 1015.2 |
| 20260505090547 | 55 | 190 | 5.0 | 6.0 | 0.00 | 0.00 | 0.00 | 63 | 1015.2 |
| 20260505090059 | 55 | 190 | 3.0 | 5.0 | 0.00 | 0.00 | 0.00 | 63 | 1015.5 |
| 20260505085548 | 56 | 190 | 3.0 | 5.0 | 0.00 | 0.00 | 0.00 | 62 | 1015.6 |
| 20260505085048 | 56 | 190 | 4.0 | 6.0 | 0.00 | 0.00 | 0.00 | 63 | 1015.5 |
| 20260505084553 | 55 | 190 | 4.0 | 6.0 | 0.00 | 0.00 | 0.00 | 63 | 1015.3 |
| 20260505084047 | 56 | 190 | 5.0 | 6.0 | 0.00 | 0.00 | 0.00 | 62 | 1015.2 |
| 20260505083547 | 55 | 190 | 4.0 | 6.0 | 0.00 | 0.00 | 0.00 | 63 | 1015.2 |
| 20260505083101 | 54 | 190 | 3.0 | 4.0 | 0.00 | 0.00 | 0.00 | 64 | 1015.1 |
| 20260505082549 | 55 | 190 | 1.0 | 2.0 | 0.00 | 0.00 | 0.00 | 63 | 1015.2 |
| 20260505082048 | 55 | 190 | 0.0 | 2.0 | 0.00 | 0.00 | 0.00 | 61 | 1015.2 |
| 20260505081555 | 56 | 190 | 0.0 | 2.0 | 0.00 | 0.00 | 0.00 | 61 | 1015.1 |
| 20260505081048 | 56 | 0 | 0.0 | 4.0 | 0.00 | 0.00 | 0.00 | 60 | 1015.0 |
| 20260505080548 | 57 | 190 | 1.0 | 5.0 | 0.00 | 0.00 | 0.00 | 60 | 1014.9 |
| 20260505080054 | 57 | 190 | 1.0 | 5.0 | 0.00 | 0.00 | 0.00 | 59 | 1014.7 |
| 20260505075549 | 57 | 190 | 2.0 | 4.0 | 0.00 | 0.00 | 0.00 | 59 | 1014.7 |
| 20260505075048 | 57 | 190 | 0.0 | 3.0 | 0.00 | 0.00 | 0.00 | 59 | 1014.7 |
| 20260505074554 | 57 | 190 | 1.0 | 6.0 | 0.00 | 0.00 | 0.00 | 59 | 1014.7 |
| 20260505074048 | 57 | 190 | 1.0 | 6.0 | 0.00 | 0.00 | 0.00 | 59 | 1014.7 |
| 20260505073548 | 58 | 190 | 4.0 | 9.0 | 0.00 | 0.00 | 0.00 | 58 | 1014.7 |
| 20260505073100 | 58 | 190 | 4.0 | 9.0 | 0.00 | 0.00 | 0.00 | 57 | 1014.6 |
| 20260505072547 | 58 | 190 | 5.0 | 9.0 | 0.00 | 0.00 | 0.00 | 57 | 1014.6 |
| 20260505072048 | 58 | 190 | 5.0 | 12.0 | 0.00 | 0.00 | 0.00 | 57 | 1014.5 |
| 20260505071553 | 59 | 190 | 6.0 | 12.0 | 0.00 | 0.00 | 0.00 | 56 | 1014.5 |
| 20260505071049 | 58 | 190 | 8.0 | 12.0 | 0.00 | 0.00 | 0.00 | 56 | 1014.5 |
| 20260505070550 | 58 | 190 | 5.0 | 9.0 | 0.00 | 0.00 | 0.00 | 57 | 1014.4 |
| 20260505070055 | 58 | 190 | 4.0 | 10.0 | 0.00 | 0.00 | 0.00 | 57 | 1014.5 |
| 20260505065549 | 59 | 190 | 5.0 | 11.0 | 0.00 | 0.00 | 0.00 | 56 | 1014.5 |
| 20260505065047 | 59 | 190 | 6.0 | 11.0 | 0.00 | 0.00 | 0.00 | 55 | 1014.5 |
| 20260505064600 | 59 | 190 | 6.0 | 11.0 | 0.00 | 0.00 | 0.00 | 55 | 1014.6 |
| 20260505064049 | 59 | 190 | 6.0 | 14.0 | 0.00 | 0.00 | 0.00 | 55 | 1014.6 |
| 20260505063548 | 60 | 190 | 8.0 | 14.0 | 0.00 | 0.00 | 0.00 | 55 | 1014.6 |
| 20260505063055 | 60 | 190 | 8.0 | 15.0 | 0.00 | 0.00 | 0.00 | 54 | 1014.5 |
| 20260505062548 | 60 | 190 | 7.0 | 15.0 | 0.00 | 0.00 | 0.00 | 54 | 1014.5 |
| 20260505062048 | 60 | 190 | 6.0 | 12.0 | 0.00 | 0.00 | 0.00 | 54 | 1014.6 |
| 20260505061553 | 60 | 190 | 7.0 | 11.0 | 0.00 | 0.00 | 0.00 | 54 | 1014.6 |
| 20260505061047 | 60 | 190 | 7.0 | 11.0 | 0.00 | 0.00 | 0.00 | 54 | 1014.6 |
| 20260505060547 | 60 | 190 | 6.0 | 11.0 | 0.00 | 0.00 | 0.00 | 54 | 1014.6 |
| 20260505055547 | 60 | 190 | 6.0 | 12.0 | 0.00 | 0.00 | 0.00 | 54 | 1014.6 |
| 20260505055051 | 60 | 190 | 4.0 | 9.0 | 0.00 | 0.00 | 0.00 | 54 | 1014.6 |
| 20260505054558 | 60 | 190 | 5.0 | 14.0 | 0.00 | 0.00 | 0.00 | 54 | 1014.6 |
| 20260505054047 | 60 | 190 | 5.0 | 14.0 | 0.00 | 0.00 | 0.00 | 53 | 1014.6 |
| 20260505053548 | 60 | 190 | 6.0 | 14.0 | 0.00 | 0.00 | 0.00 | 53 | 1014.6 |
| 20260505053112 | 60 | 190 | 6.0 | 9.0 | 0.00 | 0.00 | 0.00 | 54 | 1014.4 |
| 20260505052548 | 60 | 190 | 5.0 | 8.0 | 0.00 | 0.00 | 0.00 | 54 | 1014.5 |
| 20260505052048 | 60 | 190 | 5.0 | 8.0 | 0.00 | 0.00 | 0.00 | 54 | 1014.4 |
| 20260505051550 | 60 | 190 | 5.0 | 8.0 | 0.00 | 0.00 | 0.00 | 54 | 1014.5 |
| 20260505051048 | 60 | 190 | 4.0 | 8.0 | 0.00 | 0.00 | 0.00 | 54 | 1014.6 |
| 20260505050548 | 60 | 190 | 4.0 | 6.0 | 0.00 | 0.00 | 0.00 | 54 | 1014.4 |
| 20260505041612 | 60 | 190 | 5.0 | 9.0 | 0.00 | 0.00 | 0.00 | 49 | 1014.5 |
| 20260505041049 | 60 | 190 | 4.0 | 9.0 | 0.00 | 0.00 | 0.00 | 50 | 1014.6 |
| 20260505040548 | 60 | 190 | 4.0 | 8.0 | 0.00 | 0.00 | 0.00 | 50 | 1014.6 |
| 20260505040057 | 61 | 190 | 5.0 | 11.0 | 0.00 | 0.00 | 0.00 | 50 | 1014.6 |
| 20260505035550 | 61 | 190 | 5.0 | 13.0 | 0.00 | 0.00 | 0.00 | 49 | 1014.5 |
| 20260505035050 | 61 | 190 | 6.0 | 13.0 | 0.00 | 0.00 | 0.00 | 49 | 1014.6 |
| 20260505034553 | 61 | 190 | 5.0 | 8.0 | 0.00 | 0.00 | 0.00 | 49 | 1014.7 |
| 20260505034052 | 61 | 190 | 4.0 | 13.0 | 0.00 | 0.00 | 0.00 | 49 | 1014.7 |
| 20260505033548 | 61 | 190 | 6.0 | 13.0 | 0.00 | 0.00 | 0.00 | 49 | 1014.7 |
| 20260505033051 | 61 | 190 | 7.0 | 13.0 | 0.00 | 0.00 | 0.00 | 49 | 1014.7 |
| 20260505032550 | 61 | 190 | 3.0 | 11.0 | 0.00 | 0.00 | 0.00 | 50 | 1014.8 |
| 20260505032047 | 61 | 190 | 4.0 | 11.0 | 0.00 | 0.00 | 0.00 | 50 | 1014.9 |
| 20260505031605 | 61 | 190 | 5.0 | 8.0 | 0.00 | 0.00 | 0.00 | 50 | 1015.0 |
| 20260505031050 | 61 | 190 | 5.0 | 10.0 | 0.00 | 0.00 | 0.00 | 50 | 1014.9 |
| 20260505030548 | 61 | 190 | 4.0 | 10.0 | 0.00 | 0.00 | 0.00 | 50 | 1015.0 |
| 20260505030052 | 61 | 190 | 4.0 | 9.0 | 0.00 | 0.00 | 0.00 | 51 | 1014.9 |
| 20260505025547 | 61 | 190 | 4.0 | 9.0 | 0.00 | 0.00 | 0.00 | 51 | 1014.9 |
| 20260505025051 | 62 | 190 | 4.0 | 8.0 | 0.00 | 0.00 | 0.00 | 51 | 1015.0 |
| 20260505024555 | 62 | 190 | 4.0 | 8.0 | 0.00 | 0.00 | 0.00 | 51 | 1015.0 |
| 20260505024048 | 62 | 190 | 5.0 | 9.0 | 0.00 | 0.00 | 0.00 | 51 | 1015.0 |
| 20260505023550 | 62 | 190 | 4.0 | 9.0 | 0.00 | 0.00 | 0.00 | 51 | 1015.0 |
| 20260505023058 | 62 | 190 | 5.0 | 10.0 | 0.00 | 0.00 | 0.00 | 52 | 1015.0 |
| 20260505022548 | 62 | 190 | 5.0 | 10.0 | 0.00 | 0.00 | 0.00 | 52 | 1015.0 |
| 20260505022049 | 62 | 190 | 4.0 | 10.0 | 0.00 | 0.00 | 0.00 | 53 | 1015.0 |
| 20260505021551 | 62 | 190 | 4.0 | 8.0 | 0.00 | 0.00 | 0.00 | 53 | 1015.0 |
| 20260505021047 | 62 | 190 | 4.0 | 9.0 | 0.00 | 0.00 | 0.00 | 53 | 1015.0 |
| 20260505020548 | 62 | 190 | 5.0 | 10.0 | 0.00 | 0.00 | 0.00 | 53 | 1015.0 |
| 20260505020048 | 62 | 190 | 5.0 | 10.0 | 0.00 | 0.00 | 0.00 | 54 | 1015.1 |
| 20260505015550 | 62 | 190 | 4.0 | 10.0 | 0.00 | 0.00 | 0.00 | 54 | 1015.1 |
| 20260505015048 | 62 | 190 | 4.0 | 9.0 | 0.00 | 0.00 | 0.00 | 55 | 1015.1 |
| 20260505014551 | 61 | 190 | 5.0 | 9.0 | 0.00 | 0.00 | 0.00 | 55 | 1015.0 |
| 20260505014048 | 61 | 190 | 4.0 | 7.0 | 0.00 | 0.00 | 0.00 | 56 | 1015.0 |
| 20260505013548 | 62 | 190 | 3.0 | 6.0 | 0.00 | 0.00 | 0.00 | 56 | 1015.0 |
| 20260505013059 | 62 | 190 | 3.0 | 8.0 | 0.00 | 0.00 | 0.00 | 56 | 1014.9 |
| 20260505012547 | 62 | 190 | 4.0 | 9.0 | 0.00 | 0.00 | 0.00 | 56 | 1014.9 |
| 20260505012050 | 62 | 190 | 4.0 | 11.0 | 0.00 | 0.00 | 0.00 | 56 | 1014.9 |
| 20260505011557 | 62 | 190 | 5.0 | 11.0 | 0.00 | 0.00 | 0.00 | 56 | 1014.8 |
| 20260505011053 | 62 | 190 | 3.0 | 7.0 | 0.00 | 0.00 | 0.00 | 57 | 1014.7 |
| 20260505010549 | 62 | 190 | 3.0 | 6.0 | 0.00 | 0.00 | 0.00 | 57 | 1014.7 |
| 20260505010059 | 62 | 190 | 3.0 | 7.0 | 0.00 | 0.00 | 0.00 | 57 | 1014.6 |
| 20260505005550 | 62 | 190 | 3.0 | 7.0 | 0.00 | 0.00 | 0.00 | 57 | 1014.5 |
| 20260505005050 | 63 | 190 | 4.0 | 7.0 | 0.00 | 0.00 | 0.00 | 56 | 1014.5 |
| 20260505004555 | 63 | 190 | 3.0 | 6.0 | 0.00 | 0.00 | 0.00 | 57 | 1014.5 |
| 20260505004049 | 63 | 190 | 3.0 | 7.0 | 0.00 | 0.00 | 0.00 | 57 | 1014.3 |
| 20260505003550 | 63 | 190 | 3.0 | 8.0 | 0.00 | 0.00 | 0.00 | 56 | 1014.3 |
| 20260505003059 | 63 | 190 | 3.0 | 8.0 | 0.00 | 0.00 | 0.00 | 56 | 1014.3 |
| 20260505002552 | 63 | 190 | 3.0 | 7.0 | 0.00 | 0.00 | 0.00 | 56 | 1014.3 |
| 20260505002051 | 63 | 190 | 2.0 | 5.0 | 0.00 | 0.00 | 0.00 | 56 | 1014.2 |
| 20260505001555 | 64 | 190 | 1.0 | 4.0 | 0.00 | 0.00 | 0.00 | 56 | 1014.2 |
| 20260505001050 | 64 | 190 | 1.0 | 5.0 | 0.00 | 0.00 | 0.00 | 56 | 1014.1 |
| 20260505000549 | 65 | 190 | 1.0 | 6.0 | 0.00 | 0.00 | 0.00 | 55 | 1014.2 |
| 20260505000107 | 65 | 190 | 2.0 | 6.0 | 0.00 | 0.00 | 0.00 | 54 | 1014.2 |
| 20260504235549 | 66 | 190 | 2.0 | 7.0 | 0.00 | 0.00 | 0.00 | 54 | 1014.1 |
| 20260504235050 | 66 | 190 | 1.0 | 7.0 | 0.00 | 0.00 | 0.00 | 54 | 1014.1 |
| 20260504234627 | 66 | 190 | 3.0 | 7.0 | 0.00 | 0.00 | 0.00 | 54 | 1013.9 |
| 20260504234049 | 66 | 190 | 3.0 | 7.0 | 0.00 | 0.00 | 0.00 | 53 | 1013.9 |
| 20260504233549 | 66 | 190 | 2.0 | 7.0 | 0.00 | 0.00 | 0.00 | 53 | 1014.0 |
| 20260504233057 | 66 | 0 | 1.0 | 8.0 | 0.00 | 0.00 | 0.00 | 54 | 1013.9 |
| 20260504232549 | 67 | 190 | 4.0 | 8.0 | 0.00 | 0.00 | 0.00 | 54 | 1013.7 |
| 20260504232049 | 67 | 190 | 2.0 | 8.0 | 0.00 | 0.00 | 0.00 | 53 | 1013.8 |
| 20260504231601 | 67 | 190 | 2.0 | 8.0 | 0.00 | 0.00 | 0.00 | 53 | 1013.8 |
| 20260504231050 | 68 | 190 | 3.0 | 7.0 | 0.00 | 0.00 | 0.00 | 52 | 1013.8 |
| 20260504230549 | 67 | 190 | 3.0 | 9.0 | 0.00 | 0.00 | 0.00 | 53 | 1013.7 |
| 20260504230057 | 68 | 190 | 3.0 | 9.0 | 0.00 | 0.00 | 0.00 | 53 | 1013.8 |
| 20260504225549 | 68 | 190 | 3.0 | 11.0 | 0.00 | 0.00 | 0.00 | 53 | 1013.7 |
| 20260504225046 | 68 | 190 | 5.0 | 11.0 | 0.00 | 0.00 | 0.00 | 52 | 1013.8 |
| 20260504224551 | 69 | 190 | 3.0 | 12.0 | 0.00 | 0.00 | 0.00 | 51 | 1013.9 |
| 20260504224049 | 70 | 190 | 5.0 | 12.0 | 0.00 | 0.00 | 0.00 | 51 | 1013.8 |
| 20260504223549 | 70 | 190 | 5.0 | 9.0 | 0.00 | 0.00 | 0.00 | 51 | 1013.8 |
| 20260504223054 | 69 | 190 | 4.0 | 9.0 | 0.00 | 0.00 | 0.00 | 52 | 1013.7 |
| 20260504222548 | 69 | 190 | 3.0 | 11.0 | 0.00 | 0.00 | 0.00 | 52 | 1013.8 |
| 20260504222049 | 69 | 190 | 4.0 | 12.0 | 0.00 | 0.00 | 0.00 | 52 | 1013.9 |
| 20260504221600 | 70 | 190 | 7.0 | 12.0 | 0.00 | 0.00 | 0.00 | 52 | 1013.9 |
| 20260504221050 | 70 | 190 | 6.0 | 12.0 | 0.00 | 0.00 | 0.00 | 50 | 1013.9 |
| 20260504220550 | 70 | 190 | 6.0 | 9.0 | 0.00 | 0.00 | 0.00 | 50 | 1013.8 |
| 20260504220058 | 70 | 190 | 4.0 | 17.0 | 0.00 | 0.00 | 0.00 | 50 | 1013.8 |
| 20260504215549 | 70 | 190 | 10.0 | 22.0 | 0.00 | 0.00 | 0.00 | 49 | 1013.9 |
| 20260504215049 | 70 | 190 | 8.0 | 22.0 | 0.00 | 0.00 | 0.00 | 48 | 1013.8 |
| 20260504214554 | 70 | 190 | 15.0 | 22.0 | 0.00 | 0.00 | 0.00 | 46 | 1013.8 |
| 20260504214049 | 70 | 190 | 6.0 | 12.0 | 0.00 | 0.00 | 0.00 | 50 | 1013.8 |
| 20260504213549 | 69 | 190 | 7.0 | 13.0 | 0.00 | 0.00 | 0.00 | 50 | 1013.8 |
| 20260504213053 | 69 | 190 | 5.0 | 15.0 | 0.00 | 0.00 | 0.00 | 53 | 1013.9 |
| 20260504212550 | 69 | 190 | 6.0 | 19.0 | 0.00 | 0.00 | 0.00 | 51 | 1013.9 |
| 20260504212049 | 69 | 190 | 10.0 | 19.0 | 0.00 | 0.00 | 0.00 | 50 | 1013.9 |
| 20260504211553 | 69 | 190 | 10.0 | 19.0 | 0.00 | 0.00 | 0.00 | 50 | 1013.8 |
| 20260504211052 | 69 | 190 | 5.0 | 12.0 | 0.00 | 0.00 | 0.00 | 52 | 1013.8 |
| 20260504210549 | 69 | 190 | 4.0 | 17.0 | 0.00 | 0.00 | 0.00 | 53 | 1013.8 |
| 20260504210107 | 69 | 190 | 9.0 | 17.0 | 0.00 | 0.00 | 0.00 | 51 | 1013.8 |
| 20260504205552 | 69 | 190 | 6.0 | 14.0 | 0.00 | 0.00 | 0.00 | 50 | 1013.7 |
| 20260504205050 | 69 | 190 | 6.0 | 14.0 | 0.00 | 0.00 | 0.00 | 51 | 1013.7 |
| 20260504204603 | 68 | 190 | 10.0 | 16.0 | 0.00 | 0.00 | 0.00 | 53 | 1013.8 |
| 20260504204049 | 67 | 190 | 9.0 | 17.0 | 0.00 | 0.00 | 0.00 | 53 | 1013.9 |
| 20260504203549 | 67 | 190 | 7.0 | 17.0 | 0.00 | 0.00 | 0.00 | 53 | 1013.9 |
| 20260504203054 | 67 | 190 | 9.0 | 20.0 | 0.00 | 0.00 | 0.00 | 53 | 1013.9 |
| 20260504202549 | 67 | 190 | 11.0 | 20.0 | 0.00 | 0.00 | 0.00 | 53 | 1013.9 |
| 20260504202050 | 68 | 190 | 9.0 | 15.0 | 0.00 | 0.00 | 0.00 | 51 | 1013.9 |
| 20260504201601 | 67 | 190 | 8.0 | 20.0 | 0.00 | 0.00 | 0.00 | 55 | 1014.0 |
| 20260504201049 | 67 | 190 | 11.0 | 20.0 | 0.00 | 0.00 | 0.00 | 53 | 1014.0 |
| 20260504200549 | 68 | 190 | 12.0 | 18.0 | 0.00 | 0.00 | 0.00 | 53 | 1014.1 |
| 20260504200100 | 67 | 190 | 8.0 | 17.0 | 0.00 | 0.00 | 0.00 | 52 | 1014.2 |
| 20260504195549 | 67 | 190 | 9.0 | 17.0 | 0.00 | 0.00 | 0.00 | 52 | 1014.3 |
| 20260504195049 | 67 | 190 | 9.0 | 15.0 | 0.00 | 0.00 | 0.00 | 53 | 1014.4 |
| 20260504194606 | 67 | 190 | 7.0 | 15.0 | 0.00 | 0.00 | 0.00 | 53 | 1014.5 |
| 20260504194049 | 67 | 190 | 9.0 | 15.0 | 0.00 | 0.00 | 0.00 | 52 | 1014.4 |
| 20260504193549 | 68 | 190 | 9.0 | 15.0 | 0.00 | 0.00 | 0.00 | 51 | 1014.5 |
| 20260504193100 | 68 | 190 | 6.0 | 15.0 | 0.00 | 0.00 | 0.00 | 52 | 1014.5 |
| 20260504192549 | 68 | 190 | 5.0 | 13.0 | 0.00 | 0.00 | 0.00 | 52 | 1014.6 |
| 20260504192049 | 68 | 190 | 9.0 | 15.0 | 0.00 | 0.00 | 0.00 | 52 | 1014.6 |
| 20260504191554 | 67 | 190 | 9.0 | 16.0 | 0.00 | 0.00 | 0.00 | 51 | 1014.7 |
| 20260504191048 | 67 | 190 | 5.0 | 16.0 | 0.00 | 0.00 | 0.00 | 54 | 1014.6 |
| 20260504190548 | 67 | 190 | 6.0 | 11.0 | 0.00 | 0.00 | 0.00 | 52 | 1014.8 |
| 20260504190117 | 66 | 190 | 6.0 | 11.0 | 0.00 | 0.00 | 0.00 | 53 | 1014.9 |
| 20260504185547 | 66 | 190 | 4.0 | 13.0 | 0.00 | 0.00 | 0.00 | 53 | 1014.9 |
| 20260504185047 | 66 | 190 | 5.0 | 13.0 | 0.00 | 0.00 | 0.00 | 54 | 1015.0 |
| 20260504184558 | 66 | 190 | 5.0 | 13.0 | 0.00 | 0.00 | 0.00 | 53 | 1015.0 |
| 20260504184049 | 66 | 190 | 4.0 | 16.0 | 0.00 | 0.00 | 0.00 | 56 | 1015.0 |
| 20260504183548 | 66 | 190 | 7.0 | 16.0 | 0.00 | 0.00 | 0.00 | 54 | 1015.0 |
| 20260504183053 | 66 | 190 | 7.0 | 16.0 | 0.00 | 0.00 | 0.00 | 56 | 1015.1 |
| 20260504182548 | 65 | 190 | 4.0 | 14.0 | 0.00 | 0.00 | 0.00 | 54 | 1015.4 |
| 20260504182048 | 65 | 190 | 8.0 | 14.0 | 0.00 | 0.00 | 0.00 | 54 | 1015.4 |
| 20260504181558 | 65 | 190 | 7.0 | 14.0 | 0.00 | 0.00 | 0.00 | 54 | 1015.4 |
| 20260504181048 | 65 | 190 | 5.0 | 17.0 | 0.00 | 0.00 | 0.00 | 55 | 1015.5 |
| 20260504180547 | 65 | 190 | 9.0 | 17.0 | 0.00 | 0.00 | 0.00 | 55 | 1015.5 |
| 20260504180144 | 64 | 190 | 10.0 | 17.0 | 0.00 | 0.00 | 0.00 | 54 | 1015.6 |
| 20260504175549 | 64 | 190 | 9.0 | 15.0 | 0.00 | 0.00 | 0.00 | 55 | 1015.6 |
| 20260504175052 | 65 | 190 | 10.0 | 17.0 | 0.00 | 0.00 | 0.00 | 55 | 1015.6 |
| 20260504174553 | 65 | 190 | 10.0 | 17.0 | 0.00 | 0.00 | 0.00 | 55 | 1015.5 |
| 20260504174049 | 65 | 190 | 10.0 | 19.0 | 0.00 | 0.00 | 0.00 | 54 | 1015.4 |
| 20260504173547 | 65 | 190 | 11.0 | 19.0 | 0.00 | 0.00 | 0.00 | 55 | 1015.4 |
| 20260504173111 | 65 | 190 | 9.0 | 18.0 | 0.00 | 0.00 | 0.00 | 55 | 1015.4 |
| 20260504172547 | 65 | 190 | 10.0 | 18.0 | 0.00 | 0.00 | 0.00 | 53 | 1015.4 |
| 20260504172047 | 65 | 190 | 10.0 | 17.0 | 0.00 | 0.00 | 0.00 | 52 | 1015.3 |
| 20260504171557 | 65 | 190 | 9.0 | 17.0 | 0.00 | 0.00 | 0.00 | 53 | 1015.3 |
| 20260504171048 | 65 | 190 | 8.0 | 16.0 | 0.00 | 0.00 | 0.00 | 54 | 1015.3 |
| 20260504170550 | 65 | 190 | 8.0 | 17.0 | 0.00 | 0.00 | 0.00 | 54 | 1015.5 |
| 20260504151048 | 59 | 190 | 10.0 | 16.0 | 0.00 | 0.00 | 0.00 | 56 | 1016.9 |
| 20260504150549 | 59 | 190 | 10.0 | 19.0 | 0.00 | 0.00 | 0.00 | 55 | 1016.9 |